Regional Weather Roundup
Issued by NWS Green Bay, WI

Home | Current Version | Previous Version | Graphics & Text | Print | Product List | Glossary Off
Versions: 1 2 3 4 5 6 7 8 9 10 11 12 13 14 15 16 17 18 19 20 21 22 23 24 25 26 27 28 29 30 31 32 33 34 35 36 37 38 39 40 41 42 43 44 45 46 47 48 49 50

000
ASUS43 KGRB 251210
RWRGRB

NORTH-CENTRAL AND NORTHEAST WISCONSIN REGIONAL WEATHER ROUNDUP
NATIONAL WEATHER SERVICE GREEN BAY WI
700 AM CDT SAT APR 25 2015

WIZ005-009-010>012-018-019-251300-
NORTH CENTRAL WISCONSIN

CITY           SKY/WX    TMP DP  RH WIND       PRES   REMARKS
IRONWOOD       CLOUDY    37  27  65 E6        29.93S
MANITOWISH WTR CLOUDY    37  22  55 E5        29.93S
ARBOR VITAE    CLOUDY    37  19  48 E5        29.93S
EAGLE RIVER    PTSUNNY   36  17  47 E6        29.94S
LAND O LAKES   PTSUNNY   36  20  54 E5        29.95F
RHINELANDER    CLOUDY    35  19  52 E7        29.94S
PHILLIPS       MOCLDY    37  21  53 E6        29.91S
ANTIGO         CLOUDY    35  18  49 E8        29.92S
TOMAHAWK       CLOUDY    37  17  45 CALM      29.93R
MERRILL        CLOUDY    37  19  47 E8        29.91S
$$

WIZ013-073-251300-
NORTHEAST WISCONSIN

CITY           SKY/WX    TMP DP  RH WIND       PRES   REMARKS
IRON MOUNTAIN  PTSUNNY   32  19  58 CALM      29.98R
MARINETTE      CLOUDY    37  25  60 E12G17    29.98R
OCONTO         CLOUDY    37  25  63 NE6       29.96R
$$

WIZ017-030-035>037-045-251300-
CENTRAL WISCONSIN

CITY           SKY/WX    TMP DP  RH WIND       PRES   REMARKS
MEDFORD        CLOUDY    36  22  56 E7        29.89S
WAUSAU         CLOUDY    37  20  50 E7        29.90R
MOSINEE        CLOUDY    36  23  60 E10       29.91R
MARSHFIELD     CLOUDY    38  25  59 E13       29.88R
WISC RAPIDS    CLOUDY    38  26  62 E9        29.90R
STEVENS POINT  CLOUDY    36  24  61 NE7       29.91R
WAUPACA        CLOUDY    40  28  61 NE6       29.92R
SHAWANO        CLOUDY    39  25  57 E14G20    29.94F
CLINTONVILLE   CLOUDY    37  23  56 NE8       29.92S
$$

WIZ038-039-048-051-251300-
FOX VALLEY

CITY           SKY/WX    TMP DP  RH WIND       PRES   REMARKS
NWS GREEN BAY  CLOUDY    40  25  55 NE10      29.94R
APPLETON       CLOUDY    39  25  56 NE8       29.91S
OSHKOSH        CLOUDY    40  32  73 NE10      29.90R
FOND DU LAC    CLOUDY    40  33  76 NE9       29.89R
$$

WIZ022-050-052-251300-
EAST CENTRAL WISCONSIN

CITY           SKY/WX    TMP DP  RH WIND       PRES   REMARKS
STURGEON BAY   CLOUDY    36  21  55 NE6       29.98R
MANITOWOC      CLOUDY    39  26  59 NE8       29.93S
SHEBOYGAN      CLOUDY    39  32  76 NE13      29.90S
$$

LMZ563-521-522-541>543-251300-
LAKESHORE

STATION/POSITION TIME  TEMP    WIND        PRES    VSBY  WAVE
                       AIR SEA DIR/SP/G                  HT/PER
                 (UTC) (F)     (DEG/KT/KT) (MB)    (MI)  (FT/S)
SHEBOYGAN LKSHOR 1200   38      30/ 13/ 14 1013.6R
KEWAUNEE LKSHORE 1200   37      40/ 12/ 16 1013.3R
NORTHPORT PIER   1200   35      70/  9/ 14 1015.9R
SISTER BAY LKSHO 1200   36      90/  6/ 11   N/A
STURGEON BAY CG  1200   36      60/ 11     1015.1      6   2
CHAMBERS ISLAND  1200   36      30/ 11/ 14 1015.2S
MENOMINEE LKSHOR 1200   37      30/ 13/ 16 1015.7R
$$



USA.gov is the U.S. government's official web portal to all federal, state and local government web resources and services.